History for DABB

Annaba, DZ

Daily Weekly Monthly
Daily Summary for Sunday, March 17, 2019
  Actual: Average: Record:
Temperature
Mean Temperature: 62 °F / 17 °C - :  
Max Temperature: 82 °F / 28 °C 66 °F / 19 °C - ()
Min Temperature: 42 °F / 6 °C 48 °F / 9 °C - ()
Degree Days
Heating Degree Days: 3    
Growing Degree Days 12 (Base 50)    
Moisture
Dew Point 46 °F / 8 °C    
Average Humidity 68    
Maximum Humidity 93    
Minimum Humidity 14    
Precipitation
Precipitation 0.00 in / 0.0 cm 0.08 in / 1.9 cm - ()
Sea Level Pressure
Sea Level Pressure 30.00 in / 1015.62 hPa   
Wind
Wind Speed 5 mph / 9 km/h ()  
Max Wind Speed 10 mph / 17 km/h   
Max Gust Speed -   
Visibility 7.0 miles / 11.5 kilometers   
Events     

Key: T is trace of precipitation, MM is missing value
Source: Averaged Metar Reports

Graphs

Observations

History Graphs Observations

Obs Go Here...

Features

Weather Apps

WunderRadio

Weather Underground Apps
Check out our wide variety of mobile and setup applications.

Weather Underground Applications

Top of Page

© Copyright 2019
The Weather Company, LLC
Time(CET)TemperatureDew PointHumidity Sea Level Pressure Visibility Wind DirectionWind SpeedGust SpeedPrecipitationEvents Conditions
12:00 AM 48.2 °F / 9.0 °C 46.4 °F / 8.0 °C 93% 30.12 in / 1020 hPa - SSW 3.5 mph / 5.6 km/h - N/A   Clear
12:30 AM 46.4 °F / 8.0 °C 44.6 °F / 7.0 °C 93% 30.12 in / 1020 hPa - South 3.5 mph / 5.6 km/h - N/A   Clear
1:00 AM 46 °F / 8 °C 44 °F / 6 °C 88% 30.12 in / 1020 hPa 6 miles / 10 kilometers SSW 5.8 mph / 9.3 km/h - -  
1:00 AM 46.4 °F / 8.0 °C 42.8 °F / 6.0 °C 87% 30.09 in / 1019 hPa - SSW 5.8 mph / 9.3 km/h - N/A   Clear
1:30 AM 44.6 °F / 7.0 °C 42.8 °F / 6.0 °C 93% 30.09 in / 1019 hPa - South 4.6 mph / 7.4 km/h - N/A   Clear
2:00 AM 46.4 °F / 8.0 °C 42.8 °F / 6.0 °C 87% 30.09 in / 1019 hPa - SSW 5.8 mph / 9.3 km/h - N/A   Clear
2:30 AM 44.6 °F / 7.0 °C 42.8 °F / 6.0 °C 93% 30.06 in / 1018 hPa - WSW 4.6 mph / 7.4 km/h - N/A   Clear
3:00 AM 46.4 °F / 8.0 °C 44.6 °F / 7.0 °C 93% 30.06 in / 1018 hPa - SW 6.9 mph / 11.1 km/h - N/A   Clear
3:30 AM 46.4 °F / 8.0 °C 42.8 °F / 6.0 °C 87% 30.04 in / 1017 hPa - SSW 6.9 mph / 11.1 km/h - N/A   Clear
4:00 AM 46 °F / 8 °C 43 °F / 6 °C 84% 30.05 in / 1017 hPa 7 miles / 12 kilometers SSW 5.8 mph / 9.3 km/h - -  
4:00 AM 46.4 °F / 8.0 °C 42.8 °F / 6.0 °C 87% 30.04 in / 1017 hPa - SSW 5.8 mph / 9.3 km/h - N/A   Clear
4:30 AM 46.4 °F / 8.0 °C 42.8 °F / 6.0 °C 87% 30.04 in / 1017 hPa - SSW 5.8 mph / 9.3 km/h - N/A   Clear
5:00 AM 44.6 °F / 7.0 °C 41.0 °F / 5.0 °C 87% 30.04 in / 1017 hPa - SSW 5.8 mph / 9.3 km/h - N/A   Clear
5:30 AM 44.6 °F / 7.0 °C 41.0 °F / 5.0 °C 87% 30.04 in / 1017 hPa - SSW 5.8 mph / 9.3 km/h - N/A   Clear
6:30 AM 44.6 °F / 7.0 °C 41.0 °F / 5.0 °C 87% 30.04 in / 1017 hPa - SSW 3.5 mph / 5.6 km/h - N/A   Clear
7:00 AM 42.8 °F / 6.0 °C 39.2 °F / 4.0 °C 87% 30.04 in / 1017 hPa - SSW 5.8 mph / 9.3 km/h - N/A   Clear
7:30 AM 46.4 °F / 8.0 °C 41.0 °F / 5.0 °C 81% 30.04 in / 1017 hPa - SSW 4.6 mph / 7.4 km/h - N/A   Clear
8:00 AM 50.0 °F / 10.0 °C 44.6 °F / 7.0 °C 82% 30.04 in / 1017 hPa - SSW 5.8 mph / 9.3 km/h - N/A   Clear
8:30 AM 53.6 °F / 12.0 °C 46.4 °F / 8.0 °C 77% 30.04 in / 1017 hPa - SW 6.9 mph / 11.1 km/h - N/A   Clear
9:30 AM 62.6 °F / 17.0 °C 46.4 °F / 8.0 °C 55% 30.04 in / 1017 hPa - SW 6.9 mph / 11.1 km/h - N/A   Clear
10:00 AM 67 °F / 19 °C 46 °F / 8 °C 35% 30.04 in / 1017 hPa 9 miles / 15 kilometers SSW 8.1 mph / 13.0 km/h - -  
10:30 AM 69.8 °F / 21.0 °C 48.2 °F / 9.0 °C 46% 30.04 in / 1017 hPa - SSW 6.9 mph / 11.1 km/h - N/A   Clear
11:00 AM 73.4 °F / 23.0 °C 48.2 °F / 9.0 °C 41% 30.01 in / 1016 hPa - South 6.9 mph / 11.1 km/h - N/A   Clear
11:30 AM 75.2 °F / 24.0 °C 50.0 °F / 10.0 °C 41% 30.01 in / 1016 hPa - SSW 5.8 mph / 9.3 km/h - N/A   Clear
12:30 PM 78.8 °F / 26.0 °C 48.2 °F / 9.0 °C 34% 29.98 in / 1015 hPa - SSW 4.6 mph / 7.4 km/h - N/A   Clear
1:00 PM 82 °F / 28 °C 41 °F / 5 °C 14% 29.98 in / 1015 hPa 9 miles / 15 kilometers SSW 4.6 mph / 7.4 km/h - -  
1:00 PM 82.4 °F / 28.0 °C 41.0 °F / 5.0 °C 23% 29.95 in / 1014 hPa - WSW 4.6 mph / 7.4 km/h - N/A   Clear
2:00 PM 82.4 °F / 28.0 °C 42.8 °F / 6.0 °C 25% 29.95 in / 1014 hPa 6.2 miles / 10.0 kilometers East 9.2 mph / 14.8 km/h - N/A   Partly Cloudy
2:30 PM 77.0 °F / 25.0 °C 53.6 °F / 12.0 °C 44% 29.92 in / 1013 hPa 6.2 miles / 10.0 kilometers East 10.4 mph / 16.7 km/h - N/A   Partly Cloudy
3:00 PM 75.2 °F / 24.0 °C 51.8 °F / 11.0 °C 44% 29.92 in / 1013 hPa 6.2 miles / 10.0 kilometers NE 9.2 mph / 14.8 km/h - N/A   Partly Cloudy
4:00 PM 72 °F / 22 °C 51 °F / 10 °C 36% 29.92 in / 1013 hPa 9 miles / 15 kilometers ENE 10.4 mph / 16.7 km/h - -   Scattered Clouds
4:00 PM 71.6 °F / 22.0 °C 50.0 °F / 10.0 °C 46% 29.92 in / 1013 hPa 6.2 miles / 10.0 kilometers ENE 10.4 mph / 16.7 km/h - N/A   Partly Cloudy
4:30 PM 69.8 °F / 21.0 °C 53.6 °F / 12.0 °C 56% 29.89 in / 1012 hPa 6.2 miles / 10.0 kilometers North 6.9 mph / 11.1 km/h - N/A   Partly Cloudy
5:00 PM 68.0 °F / 20.0 °C 51.8 °F / 11.0 °C 56% 29.89 in / 1012 hPa 6.2 miles / 10.0 kilometers North 6.9 mph / 11.1 km/h - N/A   Partly Cloudy
6:00 PM 64.4 °F / 18.0 °C 51.8 °F / 11.0 °C 64% 29.89 in / 1012 hPa 6.2 miles / 10.0 kilometers NNE 10.4 mph / 16.7 km/h - N/A   Partly Cloudy
6:30 PM 62.6 °F / 17.0 °C 51.8 °F / 11.0 °C 68% 29.89 in / 1012 hPa 6.2 miles / 10.0 kilometers NNE 10.4 mph / 16.7 km/h - N/A   Partly Cloudy
7:00 PM 61 °F / 16 °C 51 °F / 11 °C 61% 29.92 in / 1013 hPa 9 miles / 15 kilometers NNE 9.2 mph / 14.8 km/h - -  
7:00 PM 60.8 °F / 16.0 °C 51.8 °F / 11.0 °C 72% 29.92 in / 1013 hPa - NNE 9.2 mph / 14.8 km/h - N/A   Clear
8:00 PM 59.0 °F / 15.0 °C 48.2 °F / 9.0 °C 67% 29.92 in / 1013 hPa - Calm Calm - N/A   Clear
8:30 PM 60.8 °F / 16.0 °C 48.2 °F / 9.0 °C 63% 29.92 in / 1013 hPa - SW 5.8 mph / 9.3 km/h - N/A   Clear
9:30 PM 57.2 °F / 14.0 °C 50.0 °F / 10.0 °C 77% 29.95 in / 1014 hPa - Variable 1.2 mph / 1.9 km/h - N/A   Clear
10:00 PM 54 °F / 12 °C 49 °F / 9 °C 77% 29.96 in / 1014 hPa 6 miles / 10 kilometers South 3.5 mph / 5.6 km/h - -  
10:30 PM 53.6 °F / 12.0 °C 50.0 °F / 10.0 °C 88% 29.95 in / 1014 hPa - South 4.6 mph / 7.4 km/h - N/A   Clear
11:00 PM 53.6 °F / 12.0 °C 50.0 °F / 10.0 °C 88% 29.95 in / 1014 hPa - SSW 4.6 mph / 7.4 km/h - N/A   Clear
11:30 PM 55.4 °F / 13.0 °C 50.0 °F / 10.0 °C 82% 29.95 in / 1014 hPa - SSW 5.8 mph / 9.3 km/h - N/A   Clear